This is the latest recevied weather packets stored in our database for station/object N0QV. If no packets are shown the sender has not sent any weather packets the latest 10 day(s).
| Time | Temp. | Humidity | Pressure | Rain* | Wind** | Luminosity | Snow |
|---|---|---|---|---|---|---|---|
| 1788622589 | 22.22° C | 90% | 1018.4 hPa | 0 mm | - | 17 W/m² | - |
| 1788622284 | 22.22° C | 90% | 1018.1 hPa | 0 mm | - | 27 W/m² | - |
| 1788621979 | 22.22° C | 90% | 1017.9 hPa | 0 mm | - | 83 W/m² | - |
| 1788621673 | 22.22° C | 90% | 1017.7 hPa | 0 mm | - | 72 W/m² | - |
| 1788621369 | 22.22° C | 90% | 1017.6 hPa | 0 mm | - | 108 W/m² | - |
| 1788621064 | 22.22° C | 90% | 1017.6 hPa | 0 mm | - | 113 W/m² | - |
| 1788620759 | 22.22° C | 90% | 1017.6 hPa | 0 mm | - | 105 W/m² | - |
| 1788620458 | 22.22° C | 90% | 1017.7 hPa | 0 mm | - | 85 W/m² | - |
| 1788620156 | 22.22° C | 90% | 1017.6 hPa | 0 mm | - | 62 W/m² | - |
| 1788619855 | 22.22° C | 90% | 1017.7 hPa | 0 mm | - | 59 W/m² | - |
| 1788619551 | 22.22° C | 91% | 1017.8 hPa | 0 mm | - | 52 W/m² | - |
| 1788619250 | 21.67° C | 91% | 1017.8 hPa | 0 mm | - | 55 W/m² | - |
| 1788618949 | 21.67° C | 91% | 1017.4 hPa | 0 mm | - | 73 W/m² | - |
| 1788618645 | 21.67° C | 91% | 1017.4 hPa | 0 mm | - | 68 W/m² | - |
| 1788618343 | 21.67° C | 91% | 1017.3 hPa | 0 mm | - | 60 W/m² | - |
| 1788618038 | 21.67° C | 92% | 1017.1 hPa | 0 mm | - | 60 W/m² | - |
| 1788617732 | 21.67° C | 92% | 1016.9 hPa | 0 mm | - | 62 W/m² | - |
| 1788617430 | 21.67° C | 92% | 1016.8 hPa | 0 mm | - | 64 W/m² | - |
| 1788617130 | 21.67° C | 92% | 1016.6 hPa | 0 mm | - | 64 W/m² | - |
| 1788616828 | 21.67° C | 92% | 1017 hPa | 0 mm | - | 59 W/m² | - |
| 1788616519 | 21.67° C | 91% | 1016.6 hPa | 0 mm | - | 58 W/m² | - |
| 1788616214 | 21.67° C | 92% | 1016.9 hPa | 0 mm | - | 56 W/m² | - |
| 1788615914 | 21.67° C | 92% | 1016.8 hPa | 0 mm | - | 57 W/m² | - |
| 1788615613 | 21.67° C | 92% | 1016.8 hPa | 0 mm | - | 60 W/m² | - |
| 1788615309 | 21.11° C | 92% | 1016.4 hPa | 0 mm | - | 50 W/m² | - |
* Rain latest hour (hover to see other rain measurements)
** Current wind speed in m/s (hover to see current wind gust speed)